www.pogodaiklimat.ru

Погода и климат >> Архив погоды >> Россия >> Томская область >> Усть-Озерное


АРХИВ ПОГОДЫ в Усть-Озерном

Время (UTC), дата Ветер
(напр.,м/с)
 
Видим.   Явления Облачность Т
(С)
Тd
(С)
f
(%)
Тe
(С)
Тes
(С)
Комфортность P
(гПа)
Po
(гПа)
Тmin
(С)
Tmax
(С)
R
(мм)
R24
(мм)
S
(см)
09 15.02 Ю 3 10 км 6/0
[Cs]
-3.9 -9.9 63 -9 -8 1023.8 1009.2
12 15.02 Ю 3 10 км 8/0
[Ac As]
-5.4 -9.9 71 -11 -11 1023.6 1009.0 -3.8
15 15.02 Ю 3 10 км 9/0
[Ac trans]
-5.9 -10.1 72 -11 -11 1022.9 1008.3
18 15.02 Ю 3 10 км 8/0
[Ac cast]
-7.0 -9.6 82 -13 -13 1021.8 1007.1
21 15.02 Ю 2 10 км 9/0
[Ac As]
-8.1 -10.6 82 -13 -13 1020.5 1005.8
00 16.02 Ю 3 10 км 8/8 600 м
[Sc]
-9.6 -11.3 87 -16 -16 1018.5 1003.7 -9.8 71
03 16.02 Ю 3 10 км 9/3 600 м
[Sc Ac As Ci]
-8.8 -11.2 83 -15 -14 1016.0 1001.2
06 16.02 Ю 4 10 км 8/4 600 м
[Sc Ac cuf]
-4.8 -10.3 65 -11 -10 1013.4 999.0
12 16.02 Ю 4
{10}
10 км 10/6 600 м
[Sc Ac As]
-4.0 -8.5 71 -10 -10 1011.7 997.3 -2.9
15 16.02 ЮЗ 3 10 км 10/0
[As op]
-4.9 -10.1 67 -10 -10 1012.2 997.8
18 16.02 ЮЗ 3 10 км 10/0
[As op]
-6.3 -8.7 83 -12 -12 1012.5 997.9
21 16.02 ЮЗ 3 10 км 10/0
[As op]
-7.5 -8.9 90 -13 -13 1013.0 998.4
00 17.02 ЮЗ 2
{10}
10 км {снег} 10/0
[As op]
-9.0 -12.1 78 -13 -13 1013.4 998.8 -9.0 71
03 17.02 Ю 1 10 км слаб. снег 10/0
[As op]
-9.8 -11.3 89 -12 -12 1013.6 998.9 -10.1
06 17.02 Ю 2 10 км слаб. снег 10/0
[As op]
-6.0 -8.3 84 -10 -10 1011.8 997.3
09 17.02 Ю 3 10 км {снег} 9/5 600 м
[Cb cap Ac trans]
-4.4 -8.2 75 -10 -9 1009.1 994.7
12 17.02 Ю 3 10 км слаб. снег 10/0
[As op]
-5.1 -6.1 93 -11 -11 1006.9 992.5 -4.2 0.7
15 17.02 Ю 3 10 км слаб. снег 10/0
[As op]
-4.2 -5.1 93 -10 -10 1004.3 990.0
18 17.02 Ю 3 10 км слаб. снег 10/0
[As op]
-2.8 -3.4 96 -8 -8 1002.3 988.1
21 17.02 Ю 3 10 км слаб. снег 10/0
[As op]
-2.4 -3.2 94 -8 -8 1001.3 987.1
00 18.02 Ю 2 10 км слаб. снег 10/0
[As op]
-3.0 -3.8 94 -7 -7 1001.0 986.8 -5.1 3 74
03 18.02 Ю 3 10 км слаб. снег 10/0
[As op]
-3.5 -4.3 94 -9 -9 1001.1 986.9
06 18.02 ЮЗ 2 10 км слаб. снег 10/0
[As op]
-2.8 -4.0 91 -7 -6 1001.1 986.9
09 18.02 ЮЗ 2 10 км слаб. снег 10/8 600 м
[Cb cap As op]
-2.5 -4.2 88 -7 -7 1001.8 987.6
12 18.02 Ю 1 10 км {ливн. осадки, снег} 10/8 600 м
[Cb cap As op]
-3.2 -4.1 93 -6 -6 1002.9 988.7 -2.2 3
15 18.02 Ю 1 10 км слаб. снег 10/8 600 м
[Cb cap As op]
-4.1 -4.7 96 -7 -7 1003.5 989.2
18 18.02 Ю 1 4000 м снег 10/0
[As op]
-4.5 -5.1 96 -7 -7 1003.9 989.6
21 18.02 Ю 2 10 км слаб. снег 10/0
[As op]
-4.6 -5.4 94 -9 -9 1004.3 990.0
00 19.02 Ю 1 10 км слаб. снег 10/0
[As op]
-4.6 -5.4 94 -7 -7 1005.3 991.0 -4.8 2 77
03 19.02 ЮЗ 3 10 км {снег} 10/6 600 м
[Cb cap As op]
-3.2 -4.1 93 -9 -8 1007.0 992.8
06 19.02 Ю 3 10 км слаб. ливневой снег 10/10 600 м
[Cb cap]
-2.2 -3.6 90 -7 -7 1009.1 994.8
09 19.02 ЮЗ 3 10 км в посл. час ливневой снег 10/10 600 м
[Cb cap]
-2.4 -4.5 85 -8 -8 1010.1 995.9
12 19.02 Ю 2 10 км 3/3 600 м
[St]
-4.2 -6.5 84 -8 -8 1011.4 997.0 -2.0 1
15 19.02 Ю 3 10 км 8/8 600 м
[Sc]
-4.0 -6.2 85 -9 -9 1011.8 997.4
00 20.02 Ю 2 10 км слаб. ливневой снег 10/10 600 м
[Cb cap]
-4.8 -5.8 93 -9 -9 1013.1 998.7 -5.8 0.4 79
12 20.02 Ю 3 10 км 10/10 600 м
[Cb cap]
-0.8 -2.4 89 -6 -6 1015.7 1001.4 +0.3 0.6
00 21.02 ЮЗ 3 10 км 10/10 600 м
[Cb cap]
-1.3 -3.3 86 -6 -6 1012.9 998.6 -1.5 2 81
12 21.02 З 1 10 км 9/9 600 м
[Sc]
-3.0 -6.0 80 -5 -5 1020.8 1006.3 -0.3 0.0
00 22.02 Ю 2 10 км 9/9 600 м
[Sc]
-5.8 -7.0 91 -10 -10 1026.4 1011.7 -5.8 0.3 81

 

Местоположение метеостанции Усть-Озерное (Томская область, Россия): широта 58.88 долгота 87.75 высота над уровнем моря 113 м.

В архиве по умолчанию представлена погода в Усть-Озерном за последнюю неделю. Архивные данные за месяц целиком и за предыдущие месяцы, начиная с января 2011 года, Вы можете получить, выбрав интересующий диапазон дат из раскрывающегося списка и нажав кнопку "Ввод!".


*Определитесь, кто Вы:
робот инопланетянин человек

Внимание! Время в таблицах - всемирное. Для получения местного времени необходимо прибавить поправку, которая равна 7 ч.

Смотрите также архив погоды в соседних городах и на ближайших метеорологических станциях:

Погода в Степановке (Томская область, Россия) (65 км)
Погода в Лосиноборске (Красноярский край, Россия) (106 км)
Погода в Александровском Шлюзе (Красноярский край, Россия) (107 км)
Погода в Сыме (Красноярский край, Россия) (167 км)
Погода в Тегульдете (Томская область, Россия) (177 км)
Погода в Батурино (Томская область, Россия) (195 км)
Погода в Назимово (Красноярский край, Россия) (199 км)
Погода в Ярцево (Красноярский край, Россия) (209 км)
Погода в Первомайском (Томская область, Россия) (221 км)
Погода в Енисейске (Красноярский край, Россия) (259 км)

Пояснения к столбцам:

Ветер - указаны скорость ветра в м/с - средняя за 10 мин, порывы в срок и между сроками (в фигурных скобках) и направление, откуда дует ветер: С - северный, СВ - северо-восточный, В - восточный, ЮВ - юго-восточный, Ю - южный, ЮЗ - юго-западный, З - западный, СЗ - северо-западный.
Видимость - горизонтальная дальность видимости в метрах или километрах. При видимости от 1 до 10 км при отсутствии осадков обычно наблюдается дымка, при ухудшении видимости до 1 км и менее - туман. В сухую погоду видимость может ухудшаться дымом, пылью или мглою.
Явления - указаны атмосферные явления, наблюдавшиеся в срок или в последний час перед сроком; фигурными скобками обозначены явления, наблюдавшиеся между сроками (за 1-3 часа до срока); квадратными скобками обозначены град или гололедные отложения с указанием их диаметра в мм.
Облачность - указаны через наклонную черту общая и нижняя облачность в баллах и высота нижней границы облаков в метрах; квадратными скобками обозначены формы облаков: Ci - перистые, Cs - перисто-слоистые, Cc - перисто-кучевые, Ac - высококучевые, As - высокослоистые, Sc - слоисто-кучевые, Ns - слоисто-дождевые, Cu - кучевые, Cb - кучево-дождевые. Подробнее классификацию облаков см. в Атласе облаков (PDF).
T - Температура воздуха - температура, измеренная на высоте 2 м над землей.
Td - Температура точки росы - температура, при понижении до которой содержащийся в воздухе водяной пар достигнет насыщения.
f - Относительная влажность воздуха - влажноcть воздуха, измеренная на высоте 2 м над землей.
Te - Эффективная температура - температура, которую ощущает одетый по сезону человек в тени. Характеристика душности погоды. При расчете учитывается влияние влажности воздуха и скорости ветра на теплоощущения человека.
Tes - Эффективная температура на солнце - температура, которую ощущает человек, с поправкой на солнечный нагрев. Характеристика знойности погоды. Зависит от высоты солнца над горизонтом, облачности и скорости ветра. Ночью, в пасмурную погоду, а также при ветре 12 м/с и более поправка равна нулю.
P - Атмосферное давление - приведенное к уровню моря атмосферное давление.
Po - Атмосферное давление - измеренное на уровне метеостанции атмосферное давление.
Tmin - Минимальная температура - минимум температуры воздуха на высоте 2 м над землей.
Tmax - Максимальная температура - максимум температуры воздуха на высоте 2 м над землей.
R - Количество осадков - Количество выпавших осадков за период времени, мм. При наведении курсора мыши на число - период времени, за который выпало указанное количество осадков.
R24 - Количество осадков - Количество выпавших осадков за 24 часа, мм.
S - Снежный покров - Высота снежного покрова, см. При наведении курсора мыши на число - состояние снежного покрова и степень покрытия местности в баллах.